CAPE
0 0 0 0 0 0 0 0 0 0 0 0 0 0 0 0 0 0 0 0 0 0 0 0 0 0 0 0 4 0 456 443 77 278 354 548 788 1046 781 544 411 266 711 417 227
0 0 0 0 0 0 0 0 0 0 0 0 0 0 0 0 0 0 0 0 0 0 0 0 0 0 0 0 3 0 491 248 181 217 525 692 789 1060 694 575 361 445 484 282 186
0 0 0 0 0 0 0 0 0 0 0 0 0 0 0 0 0 0 0 0 0 0 0 0 0 0 0 0 2 0 92 209 384 324 480 611 698 622 563 261 364 476 451 231 167
0 0 0 0 0 0 0 0 0 0 0 0 0 0 0 0 0 0 0 0 0 0 0 0 0 0 0 0 10 0 4 75 308 400 457 507 809 675 381 20 295 435 387 198 173
0 0 0 0 0 0 0 0 0 0 0 0 0 0 0 0 0 0 0 0 0 0 0 0 0 0 0 0 0 0 11 0 115 465 393 408 566 294 175 364 401 443 338 249 274
0 0 0 0 0 0 0 0 0 0 0 0 0 0 0 0 0 0 0 0 0 0 0 0 0 0 0 0 0 0 0 0 3 499 231 249 441 560 563 636 660 441 375 343 315
0 0 0 0 0 0 0 0 0 0 0 0 0 0 0 0 0 0 0 0 0 0 0 0 0 0 0 0 0 0 0 0 0 242 297 199 248 292 738 706 737 553 388 405 319
0 0 0 0 0 0 0 0 0 0 0 0 0 0 0 0 0 0 0 0 0 0 0 0 0 0 0 0 0 0 0 0 0 0 63 94 272 216 985 730 757 656 395 372 314
0 0 0 0 0 0 0 0 0 0 0 0 0 0 0 0 0 0 0 0 0 0 0 0 0 0 0 0 0 0 0 0 0 0 0 2 197 157 859 764 778 718 427 379 352
0 0 0 0 0 0 0 0 0 0 0 0 0 0 0 0 0 0 0 0 0 0 0 0 0 0 0 0 0 0 0 0 0 0 0 0 153 0 555 613 737 741 506 359 352
0 0 0 0 0 0 0 0 0 0 0 0 0 0 0 0 0 0 0 0 0 0 0 0 0 0 0 0 0 0 0 0 0 0 0 0 138 121 403 514 716 737 680 304 493
0 0 0 0 0 0 0 0 0 0 0 0 0 0 0 0 0 0 0 0 0 0 0 0 0 0 0 0 0 0 0 0 0 0 0 0 3 266 449 421 630 720 758 561 472
0 0 0 0 0 0 0 0 0 0 0 0 0 0 0 0 0 0 0 0 0 0 0 0 0 0 0 0 0 0 0 0 0 0 0 0 34 130 366 464 512 742 825 722 343
0 0 0 0 0 0 0 0 0 0 0 0 0 0 0 0 0 0 0 0 0 0 0 0 0 0 0 0 0 0 0 0 0 0 0 0 0 73 79 480 338 486 705 744 612
0 0 0 0 0 0 0 0 0 0 0 0 0 0 0 0 0 0 0 0 0 0 0 0 0 0 0 0 0 0 0 0 0 0 0 0 0 10 95 111 459 445 537 669 709
0 0 0 0 0 0 0 0 0 0 0 0 0 0 0 0 0 0 0 0 0 0 0 0 0 0 0 0 0 0 0 0 0 0 0 0 0 0 13 115 116 351 431 591 710
0 0 0 0 0 0 0 0 0 0 0 0 0 0 0 0 0 0 0 0 0 0 0 0 0 0 0 0 0 0 0 0 0 0 0 0 0 0 0 9 89 273 391 470 576
0 0 0 0 0 0 0 0 0 0 0 0 0 0 0 0 0 0 0 0 0 0 0 0 0 0 0 0 0 0 0 0 0 0 0 0 0 0 0 1 6 112 354 418 420
0 0 0 0 0 0 0 0 1 0 0 0 0 0 0 0 0 0 0 0 0 0 0 0 0 0 0 0 0 0 0 0 0 0 0 0 0 0 0 0 0 11 218 369 417
0 0 0 0 0 0 0 0 0 0 0 0 0 0 0 0 0 0 0 0 0 0 0 0 0 0 0 0 0 0 4 0 0 0 0 0 0 0 0 0 0 0 67 204 405
0 0 0 0 0 0 0 0 0 0 0 0 0 0 1 1 0 0 0 0 0 0 0 0 0 0 0 0 0 0 0 0 7 0 0 0 0 0 0 0 0 0 0 69 237
0 0 0 0 0 0 0 0 0 0 0 0 0 0 0 1 1 2 7 4 0 0 0 0 0 0 0 0 0 0 0 4 40 8 0 0 4 12 0 0 0 0 0 0 3
0 0 0 0 2 0 0 0 0 0 0 0 0 0 3 3 0 13 8 4 0 0 4 0 0 0 0 0 0 0 0 0 1 13 15 0 0 12 1 0 0 0 0 0 0
0 2 0 0 0 0 0 0 0 0 3 0 0 3 4 5 1 4 2 3 1 2 0 0 4 0 0 0 0 0 0 18 7 16 0 2 15 11 7 3 0 0 0 0 0
0 0 0 0 0 0 1 4 4 1 4 3 4 0 2 0 5 26 45 57 25 26 14 17 4 0 0 0 0 0 0 0 0 6 34 19 8 40 13 20 3 1 8 1 5
0 0 0 0 2 1 0 0 2 0 3 0 0 3 6 5 2 4 11 18 44 51 50 46 26 7 14 3 0 0 0 0 0 0 0 0 0 0 0 0 3 13 22 23 29
0 0 1 0 1 2 2 1 4 7 3 1 1 3 5 10 7 11 32 26 31 58 46 31 31 15 20 4 0 0 0 0 0 0 0 0 0 0 0 0 0 30 72 10 0
CIN
-0 -0 -0 -0 -0 -0 -0 -0 -0 -0 -0 -0 -0 -0 -0 -0 -0 -0 -0 -0 -0 -0 -0 -0 -0 -0 -0 -0 -2 -0 -2 -2 -50 -4 -41 -6 -3 -5 -44 -31 -38 -41 -4 -38 -32
-0 -0 -0 -0 -0 -0 -0 -0 -0 -0 -0 -0 -0 -0 -0 -0 -0 -0 -0 -0 -0 -0 -0 -0 -0 -0 -0 -0 -2 -0 -3 -23 -29 -3 -11 -2 -7 -2 -8 -4 -36 -6 -14 -79 -60
-0 -0 -0 -0 -0 -0 -0 -0 -0 -0 -0 -0 -0 -0 -0 -0 -0 -0 -0 -0 -0 -0 -0 -0 -0 -0 -0 -0 -2 -0 -19 -7 -28 -5 -2 -2 -2 -4 -1 -18 -24 -14 -45 -110 -93
-0 -0 -0 -0 -0 -0 -0 -0 -0 -0 -0 -0 -0 -0 -0 -0 -0 -0 -0 -0 -0 -0 -0 -0 -0 -0 -0 -0 -25 -0 -2 -5 -27 -3 -4 -3 -1 -1 -8 -56 -12 -33 -65 -148 -127
-0 -0 -0 -0 -0 -0 -0 -0 -0 -0 -0 -0 -0 -0 -0 -0 -0 -0 -0 -0 -0 -0 -0 -0 -0 -0 -0 -0 -0 -0 -4 -0 -12 -3 -12 -2 -2 -4 -3 -3 -5 -40 -64 -112 -57
-0 -0 -0 -0 -0 -0 -0 -0 -0 -0 -0 -0 -0 -0 -0 -0 -0 -0 -0 -0 -0 -0 -0 -0 -0 -0 -0 -0 -0 -0 -0 -0 -19 -4 -29 -5 -3 -2 -1 -4 -5 -40 -41 -58 -33
-0 -0 -0 -0 -0 -0 -0 -0 -0 -0 -0 -0 -0 -0 -0 -0 -0 -0 -0 -0 -0 -0 -0 -0 -0 -0 -0 -0 -0 -0 -0 -0 -0 -2 -4 -8 -2 -5 -2 -6 -10 -19 -21 -17 -11
-0 -0 -0 -0 -0 -0 -0 -0 -0 -0 -0 -0 -0 -0 -0 -0 -0 -0 -0 -0 -0 -0 -0 -0 -0 -0 -0 -0 -0 -0 -0 -0 -0 -0 -31 -13 -1 -4 -6 -6 -9 -11 -17 -11 -6
-0 -0 -0 -0 -0 -0 -0 -0 -0 -0 -0 -0 -0 -0 -0 -0 -0 -0 -0 -0 -0 -0 -0 -0 -0 -0 -0 -0 -0 -0 -0 -0 -0 -0 -0 -22 -5 -102 -8 -2 -2 -6 -12 -7 -6
-0 -0 -0 -0 -0 -0 -0 -0 -0 -0 -0 -0 -0 -0 -0 -0 -0 -0 -0 -0 -0 -0 -0 -0 -0 -0 -0 -0 -0 -0 -0 -0 -0 -0 -0 -0 -10 -0 -24 -3 -1 -4 -6 -9 -10
-0 -0 -0 -0 -0 -0 -0 -0 -0 -0 -0 -0 -0 -0 -0 -0 -0 -0 -0 -0 -0 -0 -0 -0 -0 -0 -0 -0 -0 -0 -0 -0 -0 -0 -0 -0 -4 -130 -2 -4 -5 -1 -11 -24 -7
-0 -0 -0 -0 -0 -0 -0 -0 -0 -0 -0 -0 -0 -0 -0 -0 -0 -0 -0 -0 -0 -0 -0 -0 -0 -0 -0 -0 -0 -0 -0 -0 -0 -0 -0 -0 -1 -8 -3 -10 -2 -4 -11 -8 -3
-0 -0 -0 -0 -0 -0 -0 -0 -0 -0 -0 -0 -0 -0 -0 -0 -0 -0 -0 -0 -0 -0 -0 -0 -0 -0 -0 -0 -0 -0 -0 -0 -0 -0 -0 -0 -6 -3 -9 -8 -4 -4 -3 -4 -13
-0 -0 -0 -0 -0 -0 -0 -0 -0 -0 -0 -0 -0 -0 -0 -0 -0 -0 -0 -0 -0 -0 -0 -0 -0 -0 -0 -0 -0 -0 -0 -0 -0 -0 -0 -0 -0 -4 -25 -1 -7 -2 -2 -4 -12
-0 -0 -0 -0 -0 -0 -0 -0 -0 -0 -0 -0 -0 -0 -0 -0 -0 -0 -0 -0 -0 -0 -0 -0 -0 -0 -0 -0 -0 -0 -0 -0 -0 -0 -0 -0 -0 -6 -21 -13 -3 -3 -3 -6 -15
-0 -0 -0 -0 -0 -0 -0 -0 -0 -0 -0 -0 -0 -0 -0 -0 -0 -0 -0 -0 -0 -0 -0 -0 -0 -0 -0 -0 -0 -0 -0 -0 -0 -0 -0 -0 -0 -0 -6 -33 -12 -3 -6 -5 -3
-0 -0 -0 -0 -0 -0 -0 -0 -0 -0 -0 -0 -0 -0 -0 -0 -0 -0 -0 -0 -0 -0 -0 -0 -0 -0 -0 -0 -0 -0 -0 -0 -0 -0 -0 -0 -0 -0 -0 -14 -17 -5 -4 -5 -8
-0 -0 -0 -0 -0 -0 -0 -0 -0 -0 -0 -0 -0 -0 -0 -0 -0 -0 -0 -0 -0 -0 -0 -0 -0 -0 -0 -0 -0 -0 -0 -0 -0 -0 -0 -0 -0 -0 -0 -4 -29 -14 -2 -6 -5
-0 -0 -0 -0 -0 -0 -0 -0 -3 -0 -0 -0 -0 -0 -0 -0 -0 -0 -0 -0 -0 -0 -0 -0 -0 -0 -0 -0 -0 -0 -0 -0 -0 -0 -0 -0 -0 -0 -0 -0 -0 -18 -5 -3 -6
-0 -0 -0 -0 -0 -0 -0 -0 -0 -0 -0 -0 -0 -0 -0 -0 -0 -0 -0 -0 -0 -0 -0 -0 -0 -0 -0 -0 -0 -0 -6 -0 -0 -0 -0 -0 -0 -0 -0 -0 -0 -0 -6 -3 -4
-0 -0 -0 -0 -0 -0 -2 -0 -0 -0 -0 -0 -0 -0 -2 -2 -0 -1 -0 -0 -0 -0 -0 -0 -0 -0 -0 -0 -0 -0 -0 -5 -6 -0 -0 -0 -0 -0 -0 -0 -0 -0 -0 -13 -11
-0 -0 -0 -0 -0 -0 -0 -0 -0 -0 -0 -0 -0 -0 -0 -5 -7 -5 -5 -9 -0 -0 -0 -0 -0 -0 -0 -0 -0 -0 -0 -2 -7 -7 -0 -0 -10 -12 -0 -0 -0 -0 -0 -0 -1
-0 -0 -0 -0 -3 -0 -0 -0 -0 -0 -0 -3 -2 -1 -3 -3 -3 -3 -5 -7 -0 -1 -4 -1 -0 -0 -0 -0 -0 -0 -0 -0 -4 -6 -7 -0 -0 -23 -10 -2 -0 -0 -0 -0 -0
-0 -5 -0 -0 -0 -0 -1 -0 -1 -0 -2 -0 -0 -1 -2 -2 -2 -1 -11 -22 -7 -3 -21 -0 -4 -2 -0 -0 -0 -0 -0 -7 -10 -7 -0 -11 -11 -8 -18 -5 -0 -0 -0 -0 -0
-0 -0 -0 -0 -0 -1 -1 -2 -2 -3 -1 -1 -4 -0 -0 -0 -2 -2 -2 -5 -6 -3 -2 -4 -6 -5 -0 -0 -0 -0 -0 -0 -0 -12 -15 -10 -20 -10 -13 -17 -4 -4 -2 -8 -12
-0 -0 -0 -0 -0 -0 -0 -0 -0 -0 -1 -0 -0 -2 -2 -0 -1 -2 -2 -5 -3 -7 -5 -7 -6 -5 -12 -9 -0 -0 -0 -0 -0 -0 -0 -0 -0 -0 -0 -0 -9 -11 -6 -8 -10
-0 -0 -2 -0 -1 -0 -0 -0 -1 -0 -0 -1 -0 -1 -2 -3 -9 -3 -3 -3 -10 -5 -3 -14 -3 -4 -3 -6 -4 -0 -0 -0 -0 -0 -0 -0 -0 -0 -0 -0 -0 -4 -14 -14 -0
Wind_Speed
30 30 30 30 30 30 29 28 27 26 26 25 25 25 24 23 23 24 24 18 11 16 14 3 9 7 9 4 23 16 19 18 16 15 9 10 9 8 9 11 10 18 9 16 26
31 31 31 31 31 31 30 29 28 26 26 27 26 25 23 21 24 26 15 16 18 19 6 11 13 5 8 8 6 15 15 16 16 16 13 7 7 8 8 12 11 6 8 20 27
32 31 31 31 31 31 30 28 28 27 27 27 26 23 21 20 23 12 16 18 20 14 19 9 10 18 22 10 10 12 23 21 19 16 14 7 7 9 10 10 12 13 17 23 24
32 32 32 32 32 31 30 29 28 28 28 26 24 21 18 16 16 14 17 14 10 6 26 8 7 12 14 14 19 32 26 25 19 16 15 11 7 8 7 20 14 14 18 23 27
33 33 33 33 33 32 31 30 30 29 27 24 20 17 17 15 16 19 19 10 3 9 10 12 11 9 11 5 6 20 31 19 23 16 20 10 6 6 6 12 11 15 18 23 27
34 34 34 35 34 33 32 32 30 28 25 21 17 13 16 19 16 19 17 10 2 13 10 10 9 6 17 26 11 12 19 28 20 19 12 16 6 6 4 6 9 13 17 22 27
36 36 36 36 36 34 33 32 29 25 22 19 13 12 17 17 18 19 13 10 2 9 5 7 8 13 22 27 27 34 26 23 21 9 11 13 7 4 2 6 9 12 17 21 25
38 37 37 37 37 34 33 30 26 23 19 16 13 16 17 16 17 15 12 7 3 3 9 7 9 25 25 23 21 29 35 36 14 19 6 18 16 4 2 4 7 14 17 21 23
39 39 39 38 37 33 33 28 22 20 17 15 17 15 13 14 15 14 14 10 2 3 13 12 19 23 20 25 25 19 34 32 33 18 13 20 27 21 10 3 3 10 17 22 26
40 40 39 38 36 33 31 23 19 18 15 14 19 19 14 15 16 15 12 11 5 6 9 12 17 24 21 18 23 22 28 36 24 13 13 29 25 7 30 8 4 7 17 25 28
40 40 39 37 33 31 29 19 19 16 13 21 18 19 16 16 16 15 11 7 9 10 17 14 23 22 22 27 32 31 29 34 30 29 24 38 24 8 9 5 5 5 13 20 25
40 40 38 36 32 30 25 20 20 21 22 16 17 16 16 16 15 14 12 13 15 17 15 19 32 24 25 28 31 36 30 31 33 25 29 28 41 18 12 10 7 7 7 16 22
40 39 37 34 30 23 20 21 21 20 21 13 15 17 16 18 18 16 18 18 19 20 21 26 23 24 30 32 33 33 34 30 31 27 31 35 37 29 18 12 11 8 7 11 21
40 39 36 32 20 20 17 24 22 15 23 13 16 15 16 18 19 17 18 21 21 25 26 29 32 27 29 35 32 36 29 36 34 34 32 30 36 29 21 17 15 13 10 10 17
39 37 33 22 24 19 22 23 19 14 22 12 12 14 14 17 17 13 16 19 25 25 26 28 29 35 31 35 32 37 30 32 36 36 38 34 35 38 21 34 16 16 13 12 14
37 34 28 15 13 19 23 23 15 18 21 14 14 14 15 15 16 19 17 16 22 26 29 34 30 30 38 33 32 32 34 35 34 38 46 43 43 37 27 23 26 17 18 15 15
36 29 21 18 18 24 24 17 18 20 15 16 17 17 18 17 16 19 20 19 23 27 31 30 34 35 30 34 34 30 35 40 41 43 48 39 44 44 32 32 22 20 18 17 16
28 22 14 17 22 22 19 16 19 18 18 17 18 18 21 18 22 20 22 24 20 28 32 33 33 32 32 36 36 37 36 41 47 41 46 42 44 49 44 34 34 22 20 19 19
23 14 18 22 20 17 13 15 20 20 19 22 22 21 22 16 21 21 26 30 23 21 29 30 39 23 26 33 38 38 45 45 48 42 49 42 43 41 35 46 39 30 21 21 21
23 14 20 25 16 11 11 18 18 20 24 25 23 23 25 19 21 21 27 20 24 25 27 27 37 28 28 31 37 44 37 45 49 54 54 46 42 40 39 35 39 33 25 18 20
17 14 22 24 13 10 17 17 17 21 23 22 24 27 25 27 30 31 31 21 24 24 27 31 30 36 24 34 43 41 49 41 44 52 52 47 40 32 30 33 37 37 27 31 33
16 17 26 16 11 17 19 18 18 21 20 23 21 24 29 31 35 35 34 29 22 26 29 27 34 38 33 27 36 44 43 51 47 47 52 49 36 31 25 23 29 38 36 36 32
18 19 24 5 15 18 16 17 18 22 23 23 22 24 28 30 34 33 34 30 25 26 26 30 32 39 38 37 35 40 42 42 48 49 48 51 47 17 14 20 27 25 35 33 37
12 15 19 23 22 19 15 20 18 19 20 23 22 23 25 26 24 29 32 27 27 31 27 27 34 39 41 29 28 44 44 39 45 52 54 51 45 34 19 18 19 24 23 32 30
11 15 12 17 25 24 23 19 20 22 23 19 14 14 14 11 22 25 29 31 28 26 28 29 39 39 42 38 34 34 33 40 47 48 48 49 45 42 30 28 26 22 21 22 21
12 17 22 24 23 25 24 23 21 17 11 12 12 16 14 8 3 2 22 20 28 27 28 29 39 37 42 40 37 39 38 41 45 49 50 49 49 43 34 28 25 25 24 23 23
23 22 18 23 24 21 21 19 15 8 13 13 13 13 10 14 10 1 2 4 23 28 27 31 32 36 42 37 41 48 44 44 45 47 51 58 55 45 40 35 33 27 27 29 28
Wind_Direction
329 325 322 320 319 316 312 305 296 291 291 289 290 292 290 292 272 255 234 280 235 278 264 255 147 148 143 138 190 292 284 293 290 311 346 62 63 25 341 61 36 226 38 114 129
328 324 321 320 318 315 311 308 300 293 292 297 298 296 296 308 272 226 298 294 275 259 156 142 150 191 246 265 284 283 297 315 246 307 323 351 45 48 69 90 69 3 31 118 133
325 322 319 317 315 314 311 307 304 300 298 293 302 310 310 311 278 308 297 283 271 262 159 145 140 153 169 271 263 282 276 285 287 301 296 325 346 46 97 111 93 96 109 126 135
321 318 317 315 312 309 307 303 299 292 299 302 302 317 325 314 308 322 306 297 285 150 175 159 162 160 164 171 263 250 268 271 283 290 292 304 51 75 17 225 83 93 117 129 140
318 316 316 315 311 308 304 298 293 289 290 309 316 330 324 313 305 315 300 312 124 158 159 161 163 169 172 198 216 187 249 280 270 288 277 329 348 9 346 339 45 97 120 134 141
316 315 315 315 312 307 304 301 297 299 308 322 330 342 322 299 317 310 306 311 169 162 167 172 246 234 271 246 205 285 194 266 281 277 295 283 310 356 352 4 69 102 124 136 145
317 315 315 315 314 311 308 307 307 315 318 327 339 333 311 313 313 308 311 311 317 160 206 185 263 264 268 265 264 242 266 193 195 284 288 282 294 294 41 81 92 110 129 140 147
320 317 316 316 314 311 310 309 314 324 329 335 336 318 314 323 315 314 317 315 314 217 268 256 261 264 262 270 280 258 247 231 182 180 226 271 195 212 226 117 110 122 132 144 150
322 320 317 315 313 310 312 316 327 329 331 329 319 317 318 336 323 318 298 302 270 260 277 274 271 266 261 266 269 266 248 246 249 177 216 183 253 254 249 184 150 131 136 148 153
322 321 318 315 312 311 315 335 340 334 339 335 312 305 315 313 322 319 313 296 258 266 273 267 268 262 257 257 263 261 257 250 258 254 243 230 265 286 173 146 172 139 139 152 159
320 318 315 312 309 308 320 338 335 334 323 307 315 308 317 318 318 314 315 290 281 255 258 254 258 253 255 256 257 262 261 254 257 250 258 241 255 268 135 176 192 174 145 151 160
321 317 313 311 308 305 321 332 329 321 311 321 314 315 317 313 306 319 303 287 275 260 256 262 257 262 263 261 258 257 263 259 254 257 252 256 242 255 259 236 214 209 186 154 157
318 314 310 305 301 325 337 332 328 327 309 313 311 307 311 304 296 306 296 283 278 264 257 258 275 260 260 258 258 257 257 259 260 257 256 253 252 251 249 231 235 209 199 167 159
319 314 310 304 332 338 337 334 332 337 307 301 307 311 309 302 292 307 303 288 278 273 267 263 263 272 257 256 256 256 258 257 258 255 256 250 254 249 237 244 231 228 194 191 166
319 313 308 329 321 332 329 333 334 335 305 319 329 335 324 299 308 307 310 293 278 275 274 266 264 259 260 258 257 256 261 257 256 257 253 252 251 251 222 239 223 231 219 195 185
314 308 309 351 356 340 328 321 340 310 299 321 330 326 313 313 306 309 304 300 296 283 275 269 270 267 260 260 258 259 258 258 257 253 251 247 247 249 241 207 197 224 235 223 195
312 306 329 337 332 318 311 336 315 302 321 315 320 320 313 309 307 304 296 288 285 281 274 271 265 264 263 260 251 253 247 249 250 246 248 249 247 245 249 249 225 225 222 223 212
300 286 22 348 322 324 329 324 306 316 316 326 323 321 308 310 298 298 294 289 285 283 279 274 266 258 254 253 253 243 244 246 245 249 250 250 248 245 246 254 250 242 222 220 227
285 29 0 336 343 348 347 317 313 322 322 321 317 311 304 300 298 299 288 280 287 285 276 275 263 280 262 251 249 249 242 248 253 256 251 250 249 251 248 245 250 256 232 218 217
335 15 359 343 18 29 350 317 333 326 317 309 310 311 300 304 298 290 283 295 284 282 280 278 269 271 263 260 255 249 255 243 245 246 247 248 248 246 243 246 243 247 252 228 206
13 23 353 356 47 45 335 338 335 336 328 320 313 306 304 299 293 284 284 297 288 288 280 273 273 263 266 255 249 247 245 250 249 243 245 246 249 254 245 245 246 242 243 246 244
22 5 350 27 45 2 344 349 352 336 344 329 327 317 304 299 291 288 284 285 302 285 279 276 270 262 262 269 257 250 250 242 244 241 242 246 251 263 253 248 250 245 244 245 249
34 23 357 47 26 15 27 13 3 347 344 340 333 329 317 307 297 288 283 285 291 281 281 275 267 260 260 262 262 249 247 248 245 245 242 239 240 282 274 254 257 250 246 245 245
115 94 56 26 50 37 43 15 16 15 10 354 345 337 327 315 309 298 288 292 287 278 282 275 265 260 255 271 270 249 245 249 245 240 239 241 240 242 254 256 263 259 260 245 248
127 104 115 62 21 20 8 36 30 16 12 37 65 53 30 22 338 314 296 285 283 280 276 269 262 262 260 264 265 260 248 244 243 242 242 240 242 243 253 261 266 266 261 259 255
111 94 73 49 55 37 38 40 43 58 92 83 67 31 30 33 40 339 331 301 283 289 270 267 263 265 260 259 257 256 253 251 248 244 246 245 245 245 266 269 272 254 262 262 260
66 74 81 59 52 61 53 56 68 113 76 66 51 36 36 27 33 353 235 200 284 277 277 271 264 261 257 259 256 251 250 251 251 250 247 243 242 249 253 255 263 262 260 263 265